Weather History for Arlington, WA

Change the Weather History Date:

Sunday, May 19, 2013

  Actual Average Record
Temperature  
Mean Temperature 55 °F -  
Max Temperature 62 °F 67 °F 72 °F (1978)
Min Temperature 48 °F 43 °F 35 °F (2003)
Degree Days  
Heating Degree Days 10    
Growing Degree Days 5 (Base 50)    
Moisture  
Dew Point 47 °F    
Average Humidity 77    
Maximum Humidity 88    
Minimum Humidity 55    
Precipitation  
Precipitation 0.01 in - - ()
Sea Level Pressure  
Sea Level Pressure 30.37 in    
Wind  
Wind Speed 3 mph (NW)    
Max Wind Speed 12 mph    
Max Gust Speed -    
Visibility 10 miles    
Events      
Averages and records for this station are not official NWS values.
T = Trace of Precipitation, MM = Missing Value Source: NWS Daily Summary

Daily Weather History Graph

Daily Weather History Graph

Search for Another Location

Airport:

Trip Planner

Search our weather history database for the weather conditions in past years. The results will help you decide how hot, cold, wet, or windy it might be!

Date:

Astronomy

May. 19, 2013 Rise Set
Actual Time 5:24 AM PDT 8:46 PM PDT
Civil Twilight 4:46 AM PDT 9:25 PM PDT
Nautical Twilight 3:56 AM PDT 10:15 PM PDT
Astronomical Twilight 2:50 AM PDT 11:21 PM PDT
Moon 2:31 PM PDT (5/19) 2:18 AM PDT (5/19)
Length of Visible Light 16h 39m
Length of Day
15h 22m
Waxing Gibbous, 66% of the Moon is Illuminated
May 19
Waxing Gibbous
May 24
Full
May 31
Last Quarter
Jun 8
New
Jun 16
First Quarter

Hourly Weather History & Observations

Time (PDT) Temp. Dew Point Humidity Pressure Visibility Wind Dir Wind Speed Gust Speed Precip Events Conditions
12:15 AM 51.8 °F 46.4 °F 82% 30.30 in 10.0 mi Calm Calm - N/A   Unknown
12:35 AM 51.8 °F 46.4 °F 82% 30.31 in 10.0 mi North 3.5 mph - N/A   Unknown
12:55 AM 51.8 °F 46.4 °F 82% 30.31 in 10.0 mi Calm Calm - N/A   Unknown
1:15 AM 51.8 °F 46.4 °F 82% 30.32 in 10.0 mi Calm Calm - N/A   Unknown
1:35 AM 51.8 °F 46.4 °F 82% 30.32 in 10.0 mi Calm Calm - N/A   Unknown
1:55 AM 51.8 °F 48.2 °F 88% 30.33 in 6.0 mi Calm Calm - N/A   Unknown
2:15 AM 51.8 °F 48.2 °F 88% 30.33 in 10.0 mi Calm Calm - N/A   Unknown
2:35 AM 51.8 °F 48.2 °F 88% 30.33 in 7.0 mi Calm Calm - N/A   Unknown
2:55 AM 51.8 °F 48.2 °F 88% 30.34 in 9.0 mi Calm Calm - N/A   Unknown
3:15 AM 51.8 °F 48.2 °F 88% 30.34 in 6.0 mi Calm Calm - 0.01 in   Unknown
3:35 AM 51.8 °F 48.2 °F 88% 30.35 in 7.0 mi Calm Calm - 0.01 in   Unknown
3:55 AM 51.8 °F 48.2 °F 88% 30.35 in 9.0 mi Calm Calm - 0.01 in   Unknown
4:15 AM 51.8 °F 48.2 °F 88% 30.36 in 10.0 mi Calm Calm - N/A   Unknown
4:35 AM 51.8 °F 48.2 °F 88% 30.36 in 10.0 mi Calm Calm - N/A   Unknown
5:15 AM 51.8 °F 48.2 °F 88% 30.36 in 10.0 mi Calm Calm - N/A   Unknown
5:35 AM 51.8 °F 48.2 °F 88% 30.37 in 10.0 mi Calm Calm - N/A   Unknown
5:55 AM 51.8 °F 48.2 °F 88% 30.37 in 10.0 mi WSW 4.6 mph - N/A   Unknown
6:15 AM 51.8 °F 46.4 °F 82% 30.37 in 10.0 mi Calm Calm - N/A   Unknown
6:35 AM 51.8 °F 46.4 °F 82% 30.37 in 10.0 mi Calm Calm - N/A   Unknown
6:55 AM 51.8 °F 46.4 °F 82% 30.38 in 10.0 mi Calm Calm - N/A   Unknown
7:15 AM 51.8 °F 48.2 °F 88% 30.38 in 10.0 mi West 5.8 mph - N/A   Unknown
7:55 AM 51.8 °F 48.2 °F 88% 30.40 in 10.0 mi WNW 5.8 mph - N/A   Unknown
8:15 AM 51.8 °F 48.2 °F 88% 30.40 in 10.0 mi West 4.6 mph - N/A   Unknown
8:35 AM 51.8 °F 48.2 °F 88% 30.40 in 10.0 mi West 4.6 mph - N/A   Unknown
8:55 AM 51.8 °F 48.2 °F 88% 30.41 in 10.0 mi West 4.6 mph - N/A   Unknown
9:15 AM 51.8 °F 48.2 °F 88% 30.41 in 10.0 mi West 4.6 mph - N/A   Unknown
2:35 PM - - N/A% 30.42 in - WNW 5.8 mph - N/A   Unknown
2:55 PM 60.8 °F 50.0 °F 68% 30.42 in 10.0 mi Calm Calm - N/A   Unknown
3:15 PM 60.8 °F 48.2 °F 63% 30.41 in 10.0 mi North 3.5 mph - N/A   Unknown
3:35 PM 60.8 °F 48.2 °F 63% 30.41 in 10.0 mi NNW 3.5 mph - N/A   Unknown
3:55 PM 60.8 °F 50.0 °F 68% 30.41 in 10.0 mi North 3.5 mph - N/A   Unknown
4:15 PM 62.6 °F 48.2 °F 59% 30.40 in 10.0 mi NNE 6.9 mph - N/A   Unknown
4:35 PM 60.8 °F 48.2 °F 63% 30.40 in 10.0 mi Calm Calm - N/A   Unknown
4:55 PM 62.6 °F 48.2 °F 59% 30.40 in 10.0 mi North 5.8 mph - N/A   Unknown
5:15 PM 62.6 °F 48.2 °F 59% 30.40 in 10.0 mi NNW 8.1 mph - N/A   Unknown
5:35 PM 62.6 °F 50.0 °F 63% 30.39 in 10.0 mi WNW 8.1 mph - N/A   Unknown
5:55 PM 62.6 °F 48.2 °F 59% 30.39 in 10.0 mi NW 9.2 mph - N/A   Unknown
6:15 PM 62.6 °F 48.2 °F 59% 30.38 in 10.0 mi NW 6.9 mph - N/A   Unknown
6:35 PM 62.6 °F 48.2 °F 59% 30.38 in 10.0 mi WNW 9.2 mph - N/A   Unknown
6:55 PM 62.6 °F 46.4 °F 55% 30.38 in 10.0 mi WNW 8.1 mph - N/A   Unknown
7:15 PM 60.8 °F 46.4 °F 59% 30.37 in 10.0 mi NW 8.1 mph - N/A   Unknown
7:35 PM 60.8 °F 46.4 °F 59% 30.38 in 10.0 mi WNW 5.8 mph - N/A   Unknown
7:55 PM 59.0 °F 46.4 °F 63% 30.38 in 10.0 mi NW 9.2 mph - N/A   Unknown
8:15 PM 57.2 °F 46.4 °F 67% 30.38 in 10.0 mi NW 8.1 mph - N/A   Unknown
8:35 PM 55.4 °F 46.4 °F 72% 30.38 in 10.0 mi NW 6.9 mph - N/A   Unknown
8:55 PM 55.4 °F 44.6 °F 67% 30.38 in 10.0 mi NW 11.5 mph - N/A   Unknown
9:15 PM 53.6 °F 44.6 °F 72% 30.38 in 10.0 mi NW 10.4 mph - N/A   Unknown
9:35 PM 53.6 °F 44.6 °F 72% 30.38 in 10.0 mi NW 9.2 mph - N/A   Unknown
9:55 PM 51.8 °F 44.6 °F 76% 30.38 in 10.0 mi NW 5.8 mph - N/A   Unknown
10:15 PM 50.0 °F 44.6 °F 82% 30.38 in 10.0 mi North 4.6 mph - N/A   Unknown
10:35 PM 50.0 °F 44.6 °F 82% 30.38 in 10.0 mi NW 5.8 mph - N/A   Unknown
10:55 PM 48.2 °F 44.6 °F 87% 30.38 in 10.0 mi NW 5.8 mph - N/A   Unknown
11:15 PM 48.2 °F 44.6 °F 87% 30.38 in 10.0 mi NW 4.6 mph - N/A   Unknown
11:35 PM 48.2 °F 44.6 °F 87% 30.38 in 10.0 mi NW 5.8 mph - N/A   Unknown
11:55 PM 48.2 °F 44.6 °F 87% 30.38 in 10.0 mi NW 5.8 mph - N/A   Unknown